Regional Weather Roundup
Issued by NWS

Home | Current Version | Previous Version | Text Only | Print | Product List | Glossary Off
Versions: 1 2 3 4 5 6 7 8 9 10 11 12 13 14 15 16 17 18 19 20 21 22 23 24 25 26 27 28 29 30 31 32 33 34 35 36 37 38 39 40 41 42 43 44 45 46 47 48 49 50

000
ASUS45 KBOU 011507
RWRCO

WEATHER ROUNDUP FOR COLORADO
NATIONAL WEATHER SERVICE DENVER/BOULDER CO
900 AM MDT WED OCT 01 2014

NOTE: "FAIR" INDICATES FEW OR NO CLOUDS BELOW 12000 FEET WITH NO
SIGNIFICANT WEATHER AND/OR OBSTRUCTIONS TO VISIBILITY.

COZ001>005-013-030-031-011600-
...NORTHWEST COLORADO...

CITY           SKY/WX    TMP DP  RH WIND       PRES   REMARKS
CRAIG          RAIN      38  34  85 SE9       30.02S
HAYDEN         CLOUDY    36  34  93 N8        30.02R
MEEKER         RAIN      38  36  92 E3        30.01S
MOUNT WERNER   NOT AVBL
STEAMBOAT SPGS CLOUDY    39  37  93 W6        30.00R
WALDEN         CLOUDY    36  34  93 E5        30.00R
$$

COZ006>008-011-011600-
...WEST CENTRAL VALLEYS...

CITY           SKY/WX    TMP DP  RH WIND       PRES   REMARKS
GRAND JUNCTION RAIN      44  44 100 SW5       30.01R FOG
MONTROSE       CLOUDY    46  43  89 NW15      30.03R
EAGLE          CLOUDY    41  39  93 CALM      30.02R FOG
RIFLE          LGT RAIN  44  41  89 E3        30.00R
DELTA          RAIN      49  44  82 W21G29    30.00R
NUCLA          CLOUDY    48  43  81 NW9       30.04R
$$

COZ017>023-064>068-011600-
...SOUTHWEST COLORADO...

CITY           SKY/WX    TMP DP  RH WIND       PRES   REMARKS
DURANGO        CLOUDY    42  38  85 CALM      30.03R
CORTEZ         PTSUNNY   50  43  77 CALM      29.98R
PAGOSA SPRINGS DRIZZLE   40  38  91 CALM      30.07S
TELLURIDE      PTSUNNY  N/A N/A N/A SE3       30.07S
WOLF CREEK PAS CLOUDY    30  28  93 SW14G21   30.19S WCI  20
$$

COZ009-010-012-014-032>034-037-058>063-011600-
...CENTRAL COLORADO...

CITY           SKY/WX    TMP DP  RH WIND       PRES   REMARKS
ASPEN          LGT RAIN  39  35  86 N5        30.02R FOG
BUENA VISTA    CLOUDY    40  31  69 CALM      30.03S
COPPER MTN     SUNNY     36  25  64 S12G20    30.12S
BERTHOUD PASS    N/A     25  21  86 SE12      30.15F WCI  14
COTTONWOOD PAS MOSUNNY   41  28  60 SE5       30.07F
GUNNISON       PTSUNNY   37  34  87 CALM      30.07R
KREMMLING      CLOUDY    41  36  81 CALM      30.00S
LEADVILLE      MOSUNNY   36  28  73 NW3       30.05S
SALIDA         MOSUNNY   42  32  67 NW7       30.09F
SUNLIGHT       SNOW      32  32 100 W6        30.10S VSB 1/4 WCI  26
WILKERSON PASS NOT AVBL
$$

COZ069>075-011600-
...SAN LUIS VALLEY/SANGRE DE CRISTO MOUNTAINS...

CITY           SKY/WX    TMP DP  RH WIND       PRES   REMARKS
ALAMOSA        MOSUNNY   40  34  79 CALM      30.05S
LA VETA PASS   SUNNY     41  30  65 SW6       30.11F
SAGUACHE       CLOUDY    41  32  70 W3        30.07S
$$

COZ035-036-038>040-011600-
...NORTHERN COLORADO FRONT RANGE...

CITY           SKY/WX    TMP DP  RH WIND       PRES   REMARKS
DENVER INTL AP PTSUNNY   50  41  71 S3        29.90F
DMNS CITY PARK   N/A     51  38  60 SE1       29.90F
AURORA         PTSUNNY   52  37  56 S6        29.92F
FRONT RANGE AP PTSUNNY   57  39  51 S6        29.92S
ERIE MUNI ARPT PTSUNNY   52  42  68 CALM      29.90S
BOULDER MUN AP PTSUNNY   54  41  62 SE3       29.89F
CENTENNIAL     CLOUDY    51  38  60 S7        29.92S
BROOMFIELD     PTSUNNY   54  37  54 CALM      29.91S
FORT COLLINS   MOSUNNY   54  43  66 N5        29.92R
LONGMONT       MOSUNNY   58  42  55 CALM      29.90F
$$

COZ041-046-047-076>085-087-088-011600-
...PIKES PEAK/PALMER DIVIDE AND SOUTHERN FOOTHILLS...

CITY           SKY/WX    TMP DP  RH WIND       PRES   REMARKS
COLO. SPRINGS  PTSUNNY   56  34  43 CALM      29.96F
A. F. ACADEMY  CLOUDY    51  33  50 SE1       29.96F
ELLICOTT       NOT AVBL
FALCON         PTSUNNY   50  34  53 CALM      29.98F
FORT CARSON    PTSUNNY   54  38  54 NW1       29.94R
LIMON          PTSUNNY   53  42  66 NE3       29.93S
MONUMENT HILL  CLOUDY    50  32  50 S12       29.96F
TRINIDAD       SUNNY     53  36  52 W6        29.95S
$$

COZ042>045-048>051-090-091-011600-
...NORTHEAST COLORADO...

CITY           SKY/WX    TMP DP  RH WIND       PRES   REMARKS
GREELEY ARPT   MOSUNNY   46  37  71 NE7       29.91R
AKRON          PTSUNNY   55  41  59 NW7       29.90R
BURLINGTON     SUNNY     61  42  49 N5        29.88S
WRAY           MOSUNNY   61  44  55 N9        29.86S
STERLING       PTSUNNY   55  48  76 SW3       29.88R
HOLYOKE        MOSUNNY   61  46  59 N10       29.86S
FORT MORGAN    PTSUNNY   53  43  69 W5        29.91S
$$

COZ086-089-092>099-011600-
...SOUTHEAST COLORADO...

CITY           SKY/WX    TMP DP  RH WIND       PRES   REMARKS
PUEBLO         PTSUNNY   52  39  61 CALM      29.91S
LA JUNTA       SUNNY     62  37  39 CALM      29.90S
LAMAR          SUNNY     58  45  62 NW3       29.86S
SPRINGFIELD      N/A     62  39  42 NW20      29.87S
$$



USA.gov is the U.S. government's official web portal to all federal, state and local government web resources and services.